PA1CD-13 Weather Reports


Display with metric or nautical units.
time (UTC)temp
F
wind
direction
speed
MPH
gust
MPH
rain 1hr
in
rain 24hr
in
rain mn
in
humidity
%
barometer
mb
20260502231732 52 127 0.0 0.0 0.00 0.00 0.00 1 1012.4
20260502231531 52 127 0.0 0.0 0.00 0.00 0.00 1 1012.4
20260502231331 52 127 0.0 0.0 0.00 0.00 0.00 1 1012.5
20260502231131 52 127 0.0 0.0 0.00 0.00 0.00 1 1012.5
20260502230913 52 123 0.0 0.0 0.00 0.00 0.00 1 1012.6
20260502230708 52 121 0.0 0.0 0.00 0.00 0.00 1 1012.6
20260502230507 52 133 0.0 0.0 0.00 0.00 0.00 1 1012.3
20260502230307 52 133 0.0 0.0 0.00 0.00 0.00 1 1012.7
20260502230105 52 114 0.0 0.0 0.00 0.00 0.00 1 1012.8
20260502225905 51 0 0.0 0.0 0.00 0.00 0.00 1 1012.4
20260502225705 51 0 0.0 0.0 0.00 0.00 0.00 1 1012.1
20260502225506 51 0 0.0 0.0 0.00 0.00 0.00 1 1012.1
20260502225307 51 0 0.0 0.0 0.00 0.00 0.00 1 1012.1
20260502225105 51 0 0.0 0.0 0.00 0.00 0.00 1 1012.0
20260502224905 51 0 0.0 0.0 0.00 0.00 0.00 1 1012.1
20260502224705 51 0 0.0 0.0 0.00 0.00 0.00 1 1012.1
20260502224505 51 0 0.0 0.0 0.00 0.00 0.00 1 1012.1
20260502224307 51 0 0.0 0.0 0.00 0.00 0.00 1 1012.2
20260502224105 51 0 0.0 0.0 0.00 0.00 0.00 1 1012.2
20260502223906 51 0 0.0 0.0 0.00 0.00 0.00 1 1012.2
20260502223707 51 0 0.0 0.0 0.00 0.00 0.00 1 1012.2
20260502223505 51 0 0.0 0.0 0.00 0.00 0.00 1 1012.2
20260502223306 51 0 0.0 0.0 0.00 0.00 0.00 1 1012.1
20260502223105 51 0 0.0 0.0 0.00 0.00 0.00 1 1012.1
20260502222906 51 0 0.0 0.0 0.00 0.00 0.00 1 1012.1
20260502222705 51 0 0.0 0.0 0.00 0.00 0.00 1 1012.1
20260502222506 51 0 0.0 0.0 0.00 0.00 0.00 1 1012.1
20260502222307 51 0 0.0 0.0 0.00 0.00 0.00 1 1012.1
20260502222105 51 0 0.0 0.0 0.00 0.00 0.00 1 1012.1
20260502221906 52 0 0.0 0.0 0.00 0.00 0.00 1 1012.1
20260502221706 52 78 0.0 0.0 0.00 0.00 0.00 1 1012.2
20260502221505 52 73 0.0 0.0 0.00 0.00 0.00 1 1012.2
20260502221306 52 73 0.0 0.0 0.00 0.00 0.00 1 1012.2
20260502221106 52 73 0.0 0.0 0.00 0.00 0.00 1 1012.2
20260502220905 52 73 0.0 0.0 0.00 0.00 0.00 1 1012.2
20260502220706 52 71 0.0 0.0 0.00 0.00 0.00 1 1012.2
20260502220517 52 71 0.0 0.0 0.00 0.00 0.00 1 1012.2
20260502220306 52 71 0.0 0.0 0.00 0.00 0.00 1 1012.1
20260502220105 52 62 0.0 0.0 0.00 0.00 0.00 1 1012.2
20260502215905 52 54 0.0 0.0 0.00 0.00 0.00 1 1012.2
20260502215705 52 51 0.0 0.0 0.00 0.00 0.00 1 1012.2
20260502215506 52 51 0.0 0.0 0.00 0.00 0.00 2 1012.2
20260502215307 52 42 0.0 0.0 0.00 0.00 0.00 2 1012.3
20260502215105 53 42 0.0 0.0 0.00 0.00 0.00 3 1012.3
20260502214906 53 42 0.0 0.0 0.00 0.00 0.00 3 1012.4
20260502214705 53 42 0.0 0.0 0.00 0.00 0.00 3 1012.5
20260502214506 53 42 0.0 0.0 0.00 0.00 0.00 3 1012.6
20260502214307 53 42 0.0 0.0 0.00 0.00 0.00 3 1012.5
20260502214106 53 42 0.0 0.0 0.00 0.00 0.00 4 1012.5
20260502213905 53 42 0.0 0.0 0.00 0.00 0.00 5 1012.5
20260502213706 53 42 0.0 0.0 0.00 0.00 0.00 6 1012.5
20260502213505 53 42 0.0 0.0 0.00 0.00 0.00 6 1012.6
20260502213307 53 42 0.0 0.0 0.00 0.00 0.00 7 1012.6
20260502213104 53 42 0.0 0.0 0.00 0.00 0.00 9 1012.6
20260502212905 53 42 0.0 0.0 0.00 0.00 0.00 10 1012.5
20260502212706 53 42 0.0 0.0 0.00 0.00 0.00 10 1012.6
20260502212506 53 42 0.0 0.0 0.00 0.00 0.00 11 1012.7
20260502212307 53 42 0.0 0.0 0.00 0.00 0.00 11 1012.7
20260502212106 54 42 0.0 0.0 0.00 0.00 0.00 12 1012.7
20260502211905 54 42 0.0 0.0 0.00 0.00 0.00 13 1012.7
20260502211706 54 42 0.0 0.0 0.00 0.00 0.00 13 1012.8
20260502211505 54 42 0.0 0.0 0.00 0.00 0.00 16 1012.8
20260502211306 54 42 0.0 0.0 0.00 0.00 0.00 17 1012.7
20260502211105 54 42 0.0 0.0 0.00 0.00 0.00 20 1012.8
20260502210905 54 39 0.0 0.0 0.00 0.00 0.00 21 1012.8
20260502210705 54 39 0.0 0.0 0.00 0.00 0.00 23 1012.8
20260502210506 54 39 0.0 0.0 0.00 0.00 0.00 23 1012.8
20260502210307 54 39 0.0 0.0 0.00 0.00 0.00 24 1012.8
20260502210106 54 38 0.0 0.0 0.00 0.00 0.00 25 1012.7
20260502205905 55 38 0.0 0.0 0.00 0.00 0.00 24 1012.8
20260502205704 55 38 0.0 0.0 0.00 0.00 0.00 24 1012.8
20260502205507 55 38 0.0 0.0 0.00 0.00 0.00 23 1012.9
20260502205307 55 38 0.0 0.0 0.00 0.00 0.00 23 1012.8
20260502205105 55 38 0.0 0.0 0.00 0.00 0.00 23 1012.9
20260502204906 55 38 0.0 0.0 0.00 0.00 0.00 24 1012.9
20260502204705 55 38 0.0 0.0 0.00 0.00 0.00 24 1012.9
20260502204506 55 38 0.0 0.0 0.00 0.00 0.00 25 1012.9
20260502204307 56 38 0.0 0.0 0.00 0.00 0.00 25 1012.8
20260502204106 56 38 0.0 0.0 0.00 0.00 0.00 25 1012.9
20260502203905 56 38 0.0 0.0 0.00 0.00 0.00 25 1013.0
20260502203706 56 38 0.0 0.0 0.00 0.00 0.00 25 1013.1
20260502203505 56 38 0.0 0.0 0.00 0.00 0.00 26 1013.1
20260502203308 56 38 0.0 0.0 0.00 0.00 0.00 26 1013.1
20260502203105 56 35 0.0 0.0 0.00 0.00 0.00 26 1013.1
20260502202906 56 35 0.0 0.0 0.00 0.00 0.00 27 1013.2
20260502202706 56 35 0.0 0.0 0.00 0.00 0.00 27 1013.2
20260502202505 56 35 0.0 0.0 0.00 0.00 0.00 27 1013.2
20260502202306 56 35 0.0 0.0 0.00 0.00 0.00 28 1013.1
20260502202105 56 35 0.0 0.0 0.00 0.00 0.00 28 1013.3
20260502201905 57 24 0.0 0.0 0.00 0.00 0.00 29 1013.2
20260502201706 57 24 0.0 0.0 0.00 0.00 0.00 29 1013.3
20260502201506 57 24 0.0 0.0 0.00 0.00 0.00 30 1013.4
20260502201307 57 24 0.0 0.0 0.00 0.00 0.00 30 1013.4
20260502201102 57 24 0.0 0.0 0.00 0.00 0.00 30 1013.4
20260502200905 57 24 0.0 0.0 0.00 0.00 0.00 30 1013.4
20260502200706 57 24 0.0 0.0 0.00 0.00 0.00 31 1013.3
20260502200505 57 24 0.0 0.0 0.00 0.00 0.00 31 1013.4
20260502200306 57 24 0.0 0.0 0.00 0.00 0.00 31 1013.3
20260502200106 57 24 0.0 0.0 0.00 0.00 0.00 33 1013.4
20260502195905 57 24 0.0 0.0 0.00 0.00 0.00 33 1013.4
20260502195705 57 24 0.0 0.0 0.00 0.00 0.00 33 1013.4
20260502195505 57 24 0.0 0.0 0.00 0.00 0.00 33 1013.3
20260502195307 58 24 0.0 0.0 0.00 0.00 0.00 34 1013.4
20260502195106 58 24 0.0 0.0 0.00 0.00 0.00 34 1013.4
20260502194905 58 24 0.0 0.0 0.00 0.00 0.00 35 1013.4
20260502194705 58 24 0.0 0.0 0.00 0.00 0.00 35 1013.4
20260502194506 58 24 0.0 0.0 0.00 0.00 0.00 35 1013.3
20260502194301 58 24 0.0 0.0 0.00 0.00 0.00 35 1013.3
20260502194105 58 24 0.0 0.0 0.00 0.00 0.00 36 1013.4
20260502193905 58 24 0.0 0.0 0.00 0.00 0.00 36 1013.4
20260502193705 58 24 0.0 0.0 0.00 0.00 0.00 37 1013.4
20260502193506 58 24 0.0 0.0 0.00 0.00 0.00 37 1013.4
20260502193306 58 24 0.0 0.0 0.00 0.00 0.00 37 1013.5
20260502193105 58 24 0.0 0.0 0.00 0.00 0.00 38 1013.4
20260502192906 58 24 0.0 0.0 0.00 0.00 0.00 38 1013.4
20260502192705 58 24 0.0 0.0 0.00 0.00 0.00 38 1013.4
20260502192506 58 24 0.0 0.0 0.00 0.00 0.00 38 1013.4
20260502192306 59 24 0.0 0.0 0.00 0.00 0.00 38 1013.4
20260502192105 59 24 0.0 0.0 0.00 0.00 0.00 38 1013.5
20260502191905 59 24 0.0 0.0 0.00 0.00 0.00 38 1013.4
20260502191705 59 24 0.0 0.0 0.00 0.00 0.00 38 1013.5
20260502191507 59 24 0.0 0.0 0.00 0.00 0.00 38 1013.6
20260502191307 59 24 0.0 0.0 0.00 0.00 0.00 38 1013.5
20260502191105 59 24 0.0 0.0 0.00 0.00 0.00 38 1013.4
20260502190905 59 24 0.0 0.0 0.00 0.00 0.00 38 1013.5
20260502190705 59 24 0.0 0.0 0.00 0.00 0.00 38 1013.4
20260502190505 60 24 0.0 0.0 0.00 0.00 0.00 38 1013.5
20260502190307 60 24 0.0 0.0 0.00 0.00 0.00 38 1013.4
20260502190105 60 24 0.0 0.0 0.00 0.00 0.00 38 1013.4
20260502185836 60 24 0.0 0.0 0.00 0.00 0.00 38 1013.4
20260502185636 60 24 0.0 0.0 0.00 0.00 0.00 38 1013.4
20260502185436 60 25 0.0 0.0 0.00 0.00 0.00 38 1013.4
20260502185236 60 25 0.0 0.0 0.00 0.00 0.00 38 1013.3
20260502185038 60 25 0.0 0.0 0.00 0.00 0.00 38 1013.4
20260502184836 60 25 0.0 0.0 0.00 0.00 0.00 38 1013.5
20260502184636 60 25 0.0 0.0 0.00 0.00 0.00 38 1013.4
20260502184437 61 25 0.0 0.0 0.00 0.00 0.00 38 1013.4
20260502184237 61 27 0.0 0.0 0.00 0.00 0.00 38 1013.4
20260502184036 61 25 0.0 0.0 0.00 0.00 0.00 38 1013.5
20260502183836 61 20 0.0 0.0 0.00 0.00 0.00 38 1013.4
20260502183636 61 20 0.0 0.0 0.00 0.00 0.00 39 1013.5
20260502183436 61 20 0.0 0.0 0.00 0.00 0.00 39 1013.5
20260502183236 61 20 0.0 0.0 0.00 0.00 0.00 39 1013.5
20260502183037 61 20 0.0 0.0 0.00 0.00 0.00 39 1013.5
20260502182837 62 20 0.0 0.0 0.00 0.00 0.00 40 1013.5
20260502182637 62 20 0.0 0.0 0.00 0.00 0.00 40 1013.5
20260502182436 62 20 0.0 0.0 0.00 0.00 0.00 40 1013.5
20260502182236 62 20 0.0 0.0 0.00 0.00 0.00 42 1013.6
20260502182036 62 20 0.0 0.0 0.00 0.00 0.00 42 1013.6
20260502181835 62 21 0.0 0.0 0.00 0.00 0.00 43 1013.6
20260502181635 62 21 0.0 0.0 0.00 0.00 0.00 45 1013.6
20260502181435 62 21 0.0 0.0 0.00 0.00 0.00 45 1013.6
20260502181236 62 23 0.0 0.0 0.00 0.00 0.00 47 1013.6
20260502181035 62 347 0.0 0.0 0.00 0.00 0.00 47 1013.6
20260502180836 62 347 0.0 0.0 0.00 0.00 0.00 48 1013.7
20260502180635 62 312 0.0 1.0 0.00 0.00 0.00 49 1013.7
20260502180435 62 312 0.0 1.0 0.00 0.00 0.00 50 1013.7
20260502180235 63 6 0.0 1.0 0.00 0.00 0.00 51 1013.7
20260502170435 64 345 0.0 1.0 0.00 0.00 0.00 65 1014.0
20260502170235 65 0 0.0 1.0 0.00 0.00 0.00 65 1014.0
20260502164233 65 0 0.0 3.0 0.00 0.00 0.00 65 1014.2
20260502164034 65 0 0.0 3.0 0.00 0.00 0.00 65 1014.1
20260502163833 65 0 0.0 3.0 0.00 0.00 0.00 65 1014.1
20260502163635 66 320 0.0 3.0 0.00 0.00 0.00 65 1014.2
20260502163434 66 0 0.0 3.0 0.00 0.00 0.00 65 1014.2
20260502163234 66 0 0.0 0.0 0.00 0.00 0.00 65 1014.3
20260502163034 66 338 0.0 0.0 0.00 0.00 0.00 64 1014.2
20260502162833 66 324 0.0 0.0 0.00 0.00 0.00 64 1014.2
20260502162634 66 0 0.0 2.0 0.00 0.00 0.00 64 1014.3
20260502162434 66 0 0.0 2.0 0.00 0.00 0.00 64 1014.2
20260502162234 66 293 0.0 2.0 0.00 0.00 0.00 63 1014.2
20260502162034 66 341 0.0 5.0 0.00 0.00 0.00 62 1014.2
20260502161833 66 0 0.0 5.0 0.00 0.00 0.00 61 1014.3
20260502161633 66 0 0.0 5.0 0.00 0.00 0.00 61 1014.3
20260502161433 66 0 0.0 5.0 0.00 0.00 0.00 60 1014.3
20260502161233 66 0 1.0 5.0 0.00 0.00 0.00 59 1014.3
20260502161033 67 0 0.0 1.0 0.00 0.00 0.00 59 1014.3
20260502160833 67 0 0.0 6.0 0.00 0.00 0.00 57 1014.4
20260502160633 67 0 0.0 6.0 0.00 0.00 0.00 57 1014.3
20260502160432 67 0 0.0 6.0 0.00 0.00 0.00 57 1014.3
20260502160234 67 0 0.0 6.0 0.00 0.00 0.00 56 1014.3
20260502152205 67 0 0.0 2.0 0.00 0.00 0.00 65 1014.5
20260502152007 67 0 0.0 2.0 0.00 0.00 0.00 65 1014.5
20260502151805 67 0 0.0 2.0 0.00 0.00 0.00 65 1014.6
20260502151605 67 305 0.0 2.0 0.00 0.00 0.00 65 1014.6
20260502151406 66 0 0.0 1.0 0.00 0.00 0.00 65 1014.6
20260502151205 66 0 0.0 5.0 0.00 0.00 0.00 65 1014.6
20260502151006 66 0 0.0 5.0 0.00 0.00 0.00 65 1014.7
20260502150806 66 0 0.0 5.0 0.00 0.00 0.00 65 1014.7
20260502150606 66 0 0.0 5.0 0.00 0.00 0.00 65 1014.7
20260502150404 66 0 1.0 5.0 0.00 0.00 0.00 65 1014.8
20260502150204 66 337 0.0 2.0 0.00 0.00 0.00 65 1014.7
20260502130604 69 0 0.0 3.0 0.00 0.00 0.00 62 1015.4
20260502130403 69 0 1.0 3.0 0.00 0.00 0.00 61 1015.5
20260502130205 69 0 0.0 1.0 0.00 0.00 0.00 61 1015.5
20260502123804 69 0 0.0 1.0 0.00 0.00 0.00 60 1015.5
20260502123605 69 0 0.0 1.0 0.00 0.00 0.00 61 1015.4
20260502123403 69 0 0.0 1.0 0.00 0.00 0.00 61 1015.4
20260502123205 69 0 0.0 1.0 0.00 0.00 0.00 60 1015.4
20260502123005 69 331 0.0 1.0 0.00 0.00 0.00 60 1015.5
20260502122804 69 0 0.0 1.0 0.00 0.00 0.00 60 1015.6
20260502122603 68 0 0.0 2.0 0.00 0.00 0.00 61 1015.5
20260502122404 68 0 0.0 2.0 0.00 0.00 0.00 61 1015.5
20260502122205 68 0 0.0 2.0 0.00 0.00 0.00 60 1015.5
20260502122005 68 0 0.0 2.0 0.00 0.00 0.00 61 1015.6
20260502121804 68 0 0.0 2.0 0.00 0.00 0.00 61 1015.5
20260502121604 68 0 0.0 2.0 0.00 0.00 0.00 61 1015.7
20260502121403 68 0 0.0 4.0 0.00 0.00 0.00 61 1015.6
20260502121141 68 0 0.0 4.0 0.00 0.00 0.00 61 1015.6
20260502120932 68 0 0.0 4.0 0.00 0.00 0.00 61 1015.6
20260502120732 68 0 0.0 4.0 0.00 0.00 0.00 61 1015.7
20260502120531 68 0 0.0 4.0 0.00 0.00 0.00 61 1015.7
20260502120329 68 0 0.0 2.0 0.00 0.00 0.00 60 1015.6
20260502120129 68 0 0.0 2.0 0.00 0.00 0.00 60 1015.7
20260502115929 68 0 0.0 3.0 0.00 0.00 0.00 60 1015.7
20260502115730 68 0 0.0 3.0 0.00 0.00 0.00 60 1015.7
20260502115528 68 0 0.0 3.0 0.00 0.00 0.00 61 1015.7
20260502115328 67 0 0.0 3.0 0.00 0.00 0.00 61 1015.7
20260502115128 67 0 1.0 3.0 0.00 0.00 0.00 61 1015.7
20260502114928 67 0 0.0 3.0 0.00 0.00 0.00 61 1015.7
20260502114730 67 0 0.0 3.0 0.00 0.00 0.00 61 1015.7
20260502114529 67 0 0.0 3.0 0.00 0.00 0.00 61 1015.7
20260502114329 67 0 0.0 3.0 0.00 0.00 0.00 62 1015.7
20260502114130 67 0 1.0 5.0 0.00 0.00 0.00 62 1015.7
20260502113928 67 0 0.0 5.0 0.00 0.00 0.00 62 1015.7
20260502113729 67 0 1.0 5.0 0.00 0.00 0.00 63 1015.7
20260502113528 67 0 1.0 5.0 0.00 0.00 0.00 63 1015.7
20260502113329 68 0 0.0 5.0 0.00 0.00 0.00 63 1015.8
20260502113129 68 0 0.0 2.0 0.00 0.00 0.00 63 1015.9
20260502112928 68 0 0.0 2.0 0.00 0.00 0.00 63 1015.8
20260502112728 68 0 0.0 9.0 0.00 0.00 0.00 64 1015.9
20260502112528 68 0 0.0 9.0 0.00 0.00 0.00 64 1015.8
20260502112330 68 0 0.0 9.0 0.00 0.00 0.00 64 1015.8
20260502112130 68 0 0.0 9.0 0.00 0.00 0.00 64 1015.9
20260502111929 68 0 2.0 9.0 0.00 0.00 0.00 64 1015.9
20260502111729 68 0 2.0 5.0 0.00 0.00 0.00 64 1015.9
20260502111530 68 0 1.0 3.0 0.00 0.00 0.00 64 1015.9
20260502111329 68 0 0.0 2.0 0.00 0.00 0.00 64 1015.9
20260502111130 68 0 0.0 7.0 0.00 0.00 0.00 64 1015.9
20260502110930 68 0 0.0 7.0 0.00 0.00 0.00 64 1015.9
20260502110729 68 0 0.0 7.0 0.00 0.00 0.00 64 1015.9
20260502110530 67 0 0.0 7.0 0.00 0.00 0.00 64 1016.0
20260502110329 67 0 1.0 7.0 0.00 0.00 0.00 64 1015.9
20260502110128 67 0 0.0 4.0 0.00 0.00 0.00 64 1015.9
20260502105927 67 0 0.0 4.0 0.00 0.00 0.00 64 1016.1
20260502105727 67 0 1.0 4.0 0.00 0.00 0.00 64 1016.0
20260502105528 67 0 1.0 4.0 0.00 0.00 0.00 64 1016.1
20260502105327 67 0 0.0 4.0 0.00 0.00 0.00 64 1016.1
20260502105127 67 0 0.0 9.0 0.00 0.00 0.00 64 1016.0
20260502104928 67 0 0.0 9.0 0.00 0.00 0.00 63 1016.0
20260502104728 67 0 0.0 9.0 0.00 0.00 0.00 64 1016.0
20260502104528 67 0 0.0 9.0 0.00 0.00 0.00 63 1016.1
20260502104328 67 0 2.0 9.0 0.00 0.00 0.00 63 1016.1
20260502104129 67 0 1.0 4.0 0.00 0.00 0.00 62 1016.1
20260502103927 66 0 1.0 4.0 0.00 0.00 0.00 61 1016.1
20260502103727 66 0 0.0 0.0 0.00 0.00 0.00 60 1016.0
20260502103527 66 0 0.0 0.0 0.00 0.00 0.00 60 1016.0
20260502103327 65 302 0.0 0.0 0.00 0.00 0.00 60 1016.1
20260502103127 65 0 0.0 0.0 0.00 0.00 0.00 60 1016.1
20260502102927 65 319 0.0 0.0 0.00 0.00 0.00 60 1016.0
20260502102727 65 189 0.0 0.0 0.00 0.00 0.00 60 1016.0
20260502102528 64 0 0.0 0.0 0.00 0.00 0.00 60 1016.1
20260502102328 64 0 0.0 0.0 0.00 0.00 0.00 61 1016.2
20260502102127 64 0 0.0 0.0 0.00 0.00 0.00 62 1016.2
20260502101927 64 0 0.0 0.0 0.00 0.00 0.00 62 1016.2
20260502101727 64 0 0.0 0.0 0.00 0.00 0.00 62 1016.2
20260502101528 64 0 0.0 0.0 0.00 0.00 0.00 62 1016.2
20260502101327 64 0 0.0 0.0 0.00 0.00 0.00 62 1016.1
20260502101126 64 166 0.0 0.0 0.00 0.00 0.00 62 1016.1
20260502100926 64 0 0.0 0.0 0.00 0.00 0.00 62 1016.1
20260502100727 64 0 0.0 0.0 0.00 0.00 0.00 62 1016.0
20260502100526 64 0 0.0 0.0 0.00 0.00 0.00 62 1016.0
20260502100324 64 0 0.0 0.0 0.00 0.00 0.00 62 1015.9
20260502100124 63 0 0.0 0.0 0.00 0.00 0.00 62 1016.0
20260502091506 65 0 0.0 3.0 0.00 0.00 0.00 64 1016.4
20260502091307 65 0 0.0 3.0 0.00 0.00 0.00 64 1016.4
20260502091105 65 0 0.0 0.0 0.00 0.00 0.00 64 1016.3
20260502090905 65 0 0.0 0.0 0.00 0.00 0.00 64 1016.3
20260502090706 65 0 0.0 0.0 0.00 0.00 0.00 64 1016.3
20260502090505 65 0 0.0 0.0 0.00 0.00 0.00 64 1016.2
20260502090306 65 0 0.0 0.0 0.00 0.00 0.00 64 1016.2
20260502090106 65 0 0.0 0.0 0.00 0.00 0.00 65 1016.2
20260502071423 62 0 0.0 0.0 0.00 0.00 0.00 65 1016.1
20260502071222 61 0 0.0 0.0 0.00 0.00 0.00 65 1016.2
20260502071022 61 0 0.0 1.0 0.00 0.00 0.00 64 1016.2
20260502070823 61 0 0.0 1.0 0.00 0.00 0.00 64 1016.2
20260502070622 61 0 0.0 1.0 0.00 0.00 0.00 64 1016.2
20260502070423 61 0 0.0 1.0 0.00 0.00 0.00 64 1016.2
20260502070221 60 196 0.0 1.0 0.00 0.00 0.00 64 1016.2
20260502070022 60 0 0.0 1.0 0.00 0.00 0.00 64 1016.3
20260502065821 60 0 0.0 1.0 0.00 0.00 0.00 63 1016.3
20260502065622 60 0 0.0 1.0 0.00 0.00 0.00 63 1016.2
20260502065421 60 0 0.0 1.0 0.00 0.00 0.00 63 1016.2
20260502065221 60 0 0.0 0.0 0.00 0.00 0.00 62 1016.2
20260502065021 60 0 0.0 0.0 0.00 0.00 0.00 61 1016.1
20260502064821 60 0 0.0 0.0 0.00 0.00 0.00 61 1016.2
20260502064621 59 0 0.0 0.0 0.00 0.00 0.00 61 1016.2
20260502064420 59 0 0.0 0.0 0.00 0.00 0.00 61 1016.1
20260502064221 59 0 0.0 0.0 0.00 0.00 0.00 61 1016.2
20260502064021 59 0 0.0 0.0 0.00 0.00 0.00 61 1016.2
20260502063822 59 0 0.0 0.0 0.00 0.00 0.00 61 1016.1
20260502063620 58 0 0.0 0.0 0.00 0.00 0.00 62 1016.2
20260502063420 58 0 0.0 0.0 0.00 0.00 0.00 62 1016.1
20260502063215 58 0 0.0 0.0 0.00 0.00 0.00 62 1016.1
20260502063009 58 0 0.0 0.0 0.00 0.00 0.00 62 1016.2
20260502062806 58 0 0.0 0.0 0.00 0.00 0.00 62 1016.2
20260502062605 57 0 0.0 0.0 0.00 0.00 0.00 63 1016.1
20260502062406 57 0 0.0 0.0 0.00 0.00 0.00 63 1016.1
20260502062205 57 0 0.0 0.0 0.00 0.00 0.00 63 1016.0
20260502062005 57 0 0.0 0.0 0.00 0.00 0.00 63 1016.1
20260502061805 57 0 0.0 0.0 0.00 0.00 0.00 63 1016.0
20260502061605 56 0 0.0 0.0 0.00 0.00 0.00 63 1016.2
20260502061404 56 0 0.0 0.0 0.00 0.00 0.00 63 1016.0
20260502061204 56 0 0.0 0.0 0.00 0.00 0.00 63 1016.1
20260502061004 56 0 0.0 0.0 0.00 0.00 0.00 63 1016.1
20260502060803 56 0 0.0 0.0 0.00 0.00 0.00 63 1016.1
20260502060603 56 0 0.0 0.0 0.00 0.00 0.00 63 1016.0
20260502060404 55 0 0.0 0.0 0.00 0.00 0.00 62 1016.2
20260502060203 55 196 0.0 0.0 0.00 0.00 0.00 62 1016.1
20260502060004 55 0 0.0 0.0 0.00 0.00 0.00 62 1015.8
20260502055802 55 0 0.0 0.0 0.00 0.00 0.00 63 1015.9
20260502055602 55 0 0.0 0.0 0.00 0.00 0.00 63 1016.0
20260502055402 55 0 0.0 0.0 0.00 0.00 0.00 63 1016.0
20260502055202 55 0 0.0 0.0 0.00 0.00 0.00 63 1015.9
20260502055002 54 0 0.0 0.0 0.00 0.00 0.00 63 1016.0
20260502054803 54 0 0.0 0.0 0.00 0.00 0.00 63 1016.0
20260502054603 54 0 0.0 0.0 0.00 0.00 0.00 63 1016.0
20260502054402 54 0 0.0 0.0 0.00 0.00 0.00 63 1016.0
20260502054203 54 0 0.0 0.0 0.00 0.00 0.00 63 1016.1
20260502054002 54 0 0.0 0.0 0.00 0.00 0.00 63 1016.2
20260502053802 54 0 0.0 0.0 0.00 0.00 0.00 63 1016.1
20260502053602 53 0 0.0 0.0 0.00 0.00 0.00 63 1016.0
20260502053405 53 0 0.0 0.0 0.00 0.00 0.00 63 1016.1
20260502053202 53 0 0.0 0.0 0.00 0.00 0.00 62 1016.1
20260502053004 53 0 0.0 0.0 0.00 0.00 0.00 62 1016.1
20260502052803 53 0 0.0 0.0 0.00 0.00 0.00 62 1016.1
20260502052601 53 0 0.0 0.0 0.00 0.00 0.00 62 1016.3
20260502052403 53 0 0.0 0.0 0.00 0.00 0.00 62 1016.2
20260502052202 53 0 0.0 0.0 0.00 0.00 0.00 62 1016.2
20260502052002 53 0 0.0 0.0 0.00 0.00 0.00 62 1016.2
20260502051803 53 0 0.0 0.0 0.00 0.00 0.00 62 1016.3
20260502051603 52 0 0.0 0.0 0.00 0.00 0.00 62 1016.2
20260502051402 52 0 0.0 0.0 0.00 0.00 0.00 62 1016.3
20260502051202 52 195 0.0 0.0 0.00 0.00 0.00 62 1016.2
20260502051002 52 0 0.0 0.0 0.00 0.00 0.00 62 1016.2
20260502050802 52 0 0.0 0.0 0.00 0.00 0.00 62 1016.2
20260502050602 52 0 0.0 0.0 0.00 0.00 0.00 63 1016.2
20260502050402 52 0 0.0 0.0 0.00 0.00 0.00 63 1016.3
20260502050202 52 0 0.0 0.0 0.00 0.00 0.00 63 1016.3
20260502050006 52 189 0.0 0.0 0.00 0.00 0.00 63 1016.2
20260502045802 51 192 0.0 0.0 0.00 0.00 0.00 63 1016.2
20260502045603 51 0 0.0 0.0 0.00 0.00 0.00 63 1016.2
20260502045403 51 0 0.0 0.0 0.00 0.00 0.00 64 1016.2
20260502045203 51 0 0.0 0.0 0.00 0.00 0.00 64 1016.2
20260502045003 51 0 0.0 0.0 0.00 0.00 0.00 64 1016.1
20260502044803 51 190 0.0 0.0 0.00 0.00 0.00 64 1016.3
20260502044602 51 0 0.0 0.0 0.00 0.00 0.00 64 1016.2
20260502044402 51 0 0.0 0.0 0.00 0.00 0.00 64 1016.1
20260502044202 51 0 0.0 0.0 0.00 0.00 0.00 64 1016.1
20260502044002 51 0 0.0 0.0 0.00 0.00 0.00 64 1016.1
20260502043802 51 0 0.0 0.0 0.00 0.00 0.00 64 1016.0
20260502043602 51 0 0.0 0.0 0.00 0.00 0.00 64 1016.1
20260502043402 51 0 0.0 0.0 0.00 0.00 0.00 64 1016.1
20260502043202 52 0 0.0 0.0 0.00 0.00 0.00 64 1016.1
20260502043005 52 0 0.0 0.0 0.00 0.00 0.00 64 1016.1
20260502042802 52 0 0.0 0.0 0.00 0.00 0.00 64 1016.0
20260502042603 52 0 0.0 0.0 0.00 0.00 0.00 64 1016.1
20260502042402 52 0 0.0 0.0 0.00 0.00 0.00 64 1016.1
20260502042203 52 0 0.0 0.0 0.00 0.00 0.00 64 1016.2
20260502042002 52 0 0.0 0.0 0.00 0.00 0.00 64 1016.2
20260502041802 52 0 0.0 0.0 0.00 0.00 0.00 64 1016.3
20260502041602 52 0 0.0 0.0 0.00 0.00 0.00 65 1016.3
20260502041402 52 0 0.0 0.0 0.00 0.00 0.00 65 1016.2
20260502041203 52 0 0.0 0.0 0.00 0.00 0.00 65 1016.3
20260502041003 52 0 0.0 0.0 0.00 0.00 0.00 65 1016.3
20260502040802 52 0 0.0 0.0 0.00 0.00 0.00 65 1016.4
20260502040602 52 0 0.0 0.0 0.00 0.00 0.00 65 1016.3
20260502040404 52 0 0.0 0.0 0.00 0.00 0.00 65 1016.4
20260502040204 52 0 0.0 0.0 0.00 0.00 0.00 65 1016.3
20260502040006 52 0 0.0 0.0 0.00 0.00 0.00 66 1016.3
20260502035804 52 0 0.0 0.0 0.00 0.00 0.00 66 1016.4
20260502035603 52 0 0.0 0.0 0.00 0.00 0.00 66 1016.3
20260502035405 52 0 0.0 0.0 0.00 0.00 0.00 66 1016.4
20260502035204 52 0 0.0 0.0 0.00 0.00 0.00 66 1016.4
20260502035005 52 0 0.0 0.0 0.00 0.00 0.00 66 1016.4
20260502034803 52 0 0.0 0.0 0.00 0.00 0.00 66 1016.5
20260502034604 52 0 0.0 0.0 0.00 0.00 0.00 66 1016.4
20260502034404 52 0 0.0 0.0 0.00 0.00 0.00 66 1016.5
20260502034204 52 0 0.0 0.0 0.00 0.00 0.00 66 1016.5
20260502034004 52 0 0.0 0.0 0.00 0.00 0.00 66 1016.5
20260502033805 52 0 0.0 0.0 0.00 0.00 0.00 66 1016.5
20260502033604 52 0 0.0 0.0 0.00 0.00 0.00 66 1016.5
20260502033403 52 0 0.0 0.0 0.00 0.00 0.00 66 1016.6
20260502033204 52 0 0.0 0.0 0.00 0.00 0.00 67 1016.5
20260502033006 52 0 0.0 0.0 0.00 0.00 0.00 67 1016.6
20260502032803 53 0 0.0 0.0 0.00 0.00 0.00 67 1016.5
20260502032605 53 0 0.0 0.0 0.00 0.00 0.00 67 1016.5
20260502032405 53 0 0.0 0.0 0.00 0.00 0.00 67 1016.5
20260502032204 53 0 0.0 0.0 0.00 0.00 0.00 67 1016.5
20260502032005 53 0 0.0 0.0 0.00 0.00 0.00 67 1016.5
20260502031804 53 0 0.0 0.0 0.00 0.00 0.00 67 1016.5
20260502031606 53 0 0.0 0.0 0.00 0.00 0.00 67 1016.6
20260502031347 53 0 0.0 0.0 0.00 0.00 0.00 67 1016.5
20260502031134 53 0 0.0 0.0 0.00 0.00 0.00 67 1016.5
20260502030932 53 0 0.0 0.0 0.00 0.00 0.00 67 1016.5
20260502030733 53 0 0.0 0.0 0.00 0.00 0.00 67 1016.6
20260502030533 53 0 0.0 0.0 0.00 0.00 0.00 67 1016.6
20260502030332 53 0 0.0 0.0 0.00 0.00 0.00 67 1016.5
20260502030131 53 0 0.0 0.0 0.00 0.00 0.00 67 1016.6
20260502025918 53 0 0.0 0.0 0.00 0.00 0.00 67 1016.6
20260502025719 53 0 0.0 0.0 0.00 0.00 0.00 67 1016.6
20260502025519 53 0 0.0 0.0 0.00 0.00 0.00 66 1016.6
20260502025319 53 0 0.0 0.0 0.00 0.00 0.00 66 1016.6
20260502025119 54 0 0.0 0.0 0.00 0.00 0.00 66 1016.7
20260502024919 54 0 0.0 0.0 0.00 0.00 0.00 66 1016.7
20260502024719 54 0 0.0 0.0 0.00 0.00 0.00 66 1016.7
20260502024518 54 0 0.0 0.0 0.00 0.00 0.00 66 1016.7
20260502024318 54 0 0.0 0.0 0.00 0.00 0.00 66 1016.7
20260502024119 54 0 0.0 0.0 0.00 0.00 0.00 66 1016.7
20260502023918 54 0 0.0 0.0 0.00 0.00 0.00 66 1016.7
20260502023718 54 0 0.0 0.0 0.00 0.00 0.00 66 1016.8
20260502023518 54 0 0.0 0.0 0.00 0.00 0.00 66 1016.8
20260502023318 54 0 0.0 0.0 0.00 0.00 0.00 66 1016.8
20260502023118 54 0 0.0 0.0 0.00 0.00 0.00 66 1016.8
20260502022931 54 0 0.0 0.0 0.00 0.00 0.00 66 1016.8
20260502022718 54 0 0.0 0.0 0.00 0.00 0.00 66 1016.9
20260502022518 54 0 0.0 0.0 0.00 0.00 0.00 66 1016.8
20260502022318 54 0 0.0 0.0 0.00 0.00 0.00 65 1016.9
20260502022117 54 0 0.0 0.0 0.00 0.00 0.00 65 1016.9
20260502021905 54 0 0.0 0.0 0.00 0.00 0.00 65 1016.9
20260502021705 54 0 0.0 0.0 0.00 0.00 0.00 65 1016.9
20260502021505 54 0 0.0 0.0 0.00 0.00 0.00 65 1016.9
20260502021308 54 0 0.0 0.0 0.00 0.00 0.00 65 1017.0
20260502021105 54 0 0.0 0.0 0.00 0.00 0.00 65 1016.9
20260502020905 54 0 0.0 0.0 0.00 0.00 0.00 65 1017.0
20260502020705 54 0 0.0 0.0 0.00 0.00 0.00 65 1016.9
20260502020507 55 0 0.0 0.0 0.00 0.00 0.00 65 1017.0
20260502020306 55 0 0.0 0.0 0.00 0.00 0.00 65 1017.0
20260502020106 55 0 0.0 0.0 0.00 0.00 0.00 64 1017.0
20260502015906 55 0 0.0 0.0 0.00 0.00 0.00 64 1017.0
20260502015705 55 0 0.0 0.0 0.00 0.00 0.00 64 1017.1
20260502015506 55 0 0.0 0.0 0.00 0.00 0.00 64 1017.1
20260502015306 55 0 0.0 0.0 0.00 0.00 0.00 64 1017.1
20260502015105 55 0 0.0 0.0 0.00 0.00 0.00 64 1017.1
20260502014906 55 0 0.0 0.0 0.00 0.00 0.00 64 1017.0
20260502014705 55 0 0.0 0.0 0.00 0.00 0.00 64 1017.1
20260502014506 55 0 0.0 0.0 0.00 0.00 0.00 63 1017.1
20260502014308 55 0 0.0 0.0 0.00 0.00 0.00 63 1017.0
20260502014105 55 0 0.0 0.0 0.00 0.00 0.00 63 1017.2
20260502013906 55 0 0.0 0.0 0.00 0.00 0.00 63 1017.2
20260502013705 55 0 0.0 0.0 0.00 0.00 0.00 63 1017.1
20260502013505 55 0 0.0 0.0 0.00 0.00 0.00 63 1017.1
20260502013307 55 0 0.0 0.0 0.00 0.00 0.00 63 1017.1
20260502013104 55 0 0.0 0.0 0.00 0.00 0.00 63 1017.1
20260502012906 55 0 0.0 0.0 0.00 0.00 0.00 63 1017.2
20260502012705 55 0 0.0 0.0 0.00 0.00 0.00 63 1017.2
20260502012506 55 0 0.0 0.0 0.00 0.00 0.00 63 1017.2
20260502012308 55 0 0.0 0.0 0.00 0.00 0.00 63 1017.5
20260502012105 55 0 0.0 0.0 0.00 0.00 0.00 63 1017.5
20260502011904 55 0 0.0 0.0 0.00 0.00 0.00 63 1017.4
20260502011705 55 0 0.0 0.0 0.00 0.00 0.00 63 1017.5
20260502011507 55 0 0.0 0.0 0.00 0.00 0.00 63 1017.5
20260502011306 55 0 0.0 0.0 0.00 0.00 0.00 63 1017.4
20260502011105 55 0 0.0 0.0 0.00 0.00 0.00 63 1017.5
20260502010905 55 0 0.0 0.0 0.00 0.00 0.00 63 1017.6
20260502010706 55 0 0.0 0.0 0.00 0.00 0.00 63 1017.5
20260502010505 55 0 0.0 0.0 0.00 0.00 0.00 63 1017.6
20260502010306 55 0 0.0 0.0 0.00 0.00 0.00 63 1017.6
20260502010106 55 0 0.0 0.0 0.00 0.00 0.00 63 1017.6
20260502005905 55 0 0.0 0.0 0.00 0.00 0.00 63 1017.6
20260502005705 55 0 0.0 0.0 0.00 0.00 0.00 63 1017.7
20260502005505 55 0 0.0 0.0 0.00 0.00 0.00 62 1017.7
20260502005306 55 0 0.0 0.0 0.00 0.00 0.00 62 1017.7
20260502005105 55 0 0.0 0.0 0.00 0.00 0.00 62 1017.8
20260502004904 55 0 0.0 0.0 0.00 0.00 0.00 62 1017.8
20260502004706 55 0 0.0 0.0 0.00 0.00 0.00 62 1017.7
20260502004506 56 0 0.0 0.0 0.00 0.00 0.00 62 1017.8
20260502004306 56 0 0.0 0.0 0.00 0.00 0.00 62 1017.8
20260502004106 56 0 0.0 0.0 0.00 0.00 0.00 62 1017.9
20260502003906 56 0 0.0 0.0 0.00 0.00 0.00 62 1017.9
20260502003704 56 0 0.0 0.0 0.00 0.00 0.00 61 1018.0
20260502003505 56 0 0.0 0.0 0.00 0.00 0.00 61 1018.0
20260502003306 56 0 0.0 0.0 0.00 0.00 0.00 61 1018.0
20260502003104 56 0 0.0 0.0 0.00 0.00 0.00 61 1018.0
20260502002905 56 0 0.0 0.0 0.00 0.00 0.00 61 1018.0
20260502002705 56 0 0.0 0.0 0.00 0.00 0.00 61 1018.0
20260502002506 56 0 0.0 0.0 0.00 0.00 0.00 61 1018.1
20260502002307 57 0 0.0 0.0 0.00 0.00 0.00 61 1018.1
20260502002105 57 0 0.0 0.0 0.00 0.00 0.00 61 1018.1
20260502001905 57 0 0.0 0.0 0.00 0.00 0.00 60 1018.1
20260502001705 57 0 0.0 0.0 0.00 0.00 0.00 61 1018.1
20260502001442 57 0 0.0 0.0 0.00 0.00 0.00 61 1018.1
20260502001231 57 0 0.0 0.0 0.00 0.00 0.00 61 1018.1
20260502001031 57 0 0.0 0.0 0.00 0.00 0.00 61 1018.1
20260502000831 57 0 0.0 0.0 0.00 0.00 0.00 60 1018.2
20260502000634 57 0 0.0 0.0 0.00 0.00 0.00 60 1018.2
20260502000434 57 0 0.0 0.0 0.00 0.00 0.00 60 1018.2
20260502000234 57 0 0.0 0.0 0.00 0.00 0.00 60 1018.2
20260502000035 57 0 0.0 0.0 0.00 0.00 0.00 60 1018.2
20260501235831 57 0 0.0 0.0 0.00 0.00 0.00 60 1018.2
20260501235630 57 0 0.0 0.0 0.00 0.00 0.00 60 1018.2
20260501235424 57 0 0.0 0.0 0.00 0.00 0.00 60 1018.2
20260501235217 57 0 0.0 0.0 0.00 0.00 0.00 60 1018.2
20260501235015 57 0 0.0 0.0 0.00 0.00 0.00 60 1018.3
20260501234815 57 0 0.0 0.0 0.00 0.00 0.00 60 1018.3
20260501234615 57 0 0.0 0.0 0.00 0.00 0.00 60 1018.3
20260501234414 57 0 0.0 0.0 0.00 0.00 0.00 60 1018.3
20260501234212 57 0 0.0 0.0 0.00 0.00 0.00 60 1018.3
20260501234012 57 0 0.0 0.0 0.00 0.00 0.00 60 1018.4
20260501233812 57 0 0.0 0.0 0.00 0.00 0.00 60 1018.4
20260501233613 57 0 0.0 0.0 0.00 0.00 0.00 60 1018.4
20260501233412 57 0 0.0 0.0 0.00 0.00 0.00 60 1018.4
20260501233213 57 0 0.0 0.0 0.00 0.00 0.00 60 1018.4
20260501233013 57 0 0.0 0.0 0.00 0.00 0.00 60 1018.4
20260501232812 57 0 0.0 0.0 0.00 0.00 0.00 60 1018.4
20260501232612 57 0 0.0 0.0 0.00 0.00 0.00 60 1018.5
20260501232412 57 0 0.0 0.0 0.00 0.00 0.00 60 1018.5
20260501232213 57 0 0.0 0.0 0.00 0.00 0.00 60 1018.5
20260501232012 57 0 0.0 0.0 0.00 0.00 0.00 60 1018.5